When you browse on this site, cookies collect data to enhance your experience and personalize the content and advertising you see.
Visit our Privacy Policy to learn more. By continuing to use the site, you agree to this use of cookies and data.
EN

Hourly Weather Puspokladany

Today, 3 July, Friday

Time Temperature Precipitation Wind Pressure Humidity
00:00 +23°C° 1.6 mm 2 mps 749 mmHg 93%
01:00 +21°C° 0 mm 2 mps 750 mmHg 93%
02:00 +21°C° 0.5 mm 2 mps 749 mmHg 94%
03:00 +20°C° 0.5 mm 2 mps 749 mmHg 95%
04:00 +20°C° 0.5 mm 2 mps 749 mmHg 96%
05:00 +21°C° 0.1 mm 2 mps 749 mmHg 93%
06:00 +23°C° 0.1 mm 2 mps 750 mmHg 90%
07:00 +24°C° 0 mm 2 mps 750 mmHg 86%
08:00 +25°C° 0.6 mm 2 mps 750 mmHg 82%
09:00 +26°C° 0.6 mm 2 mps 750 mmHg 78%
10:00 +27°C° 0.6 mm 3 mps 750 mmHg 74%
11:00 +28°C° 1.4 mm 2 mps 750 mmHg 72%
12:00 +28°C° 1.4 mm 2 mps 750 mmHg 69%
13:00 +29°C° 0 mm 2 mps 751 mmHg 62%
14:00 +29°C° 0.1 mm 2 mps 750 mmHg 63%
15:00 +29°C° 0.1 mm 2 mps 750 mmHg 63%
16:00 +29°C° 0.1 mm 2 mps 750 mmHg 63%
17:00 +27°C° 0.6 mm 2 mps 750 mmHg 69%
18:00 +26°C° 0.6 mm 3 mps 751 mmHg 76%
19:00 +25°C° 0.6 mm 3 mps 751 mmHg 83%
20:00 +22°C° 0.2 mm 3 mps 751 mmHg 84%
21:00 +21°C° 0.2 mm 3 mps 752 mmHg 84%
22:00 +20°C° 0.2 mm 4 mps 752 mmHg 85%
23:00 +20°C° 0 mm 4 mps 752 mmHg 86%

Tomorrow, 4 July, Saturday

Time Temperature Precipitation Wind Pressure Humidity
00:00 +20°C° 0 mm 3 mps 752 mmHg 87%
01:00 +19°C° 0 mm 3 mps 753 mmHg 88%
02:00 +19°C° 0 mm 3 mps 753 mmHg 88%
03:00 +18°C° 0 mm 3 mps 753 mmHg 89%
04:00 +18°C° 0 mm 3 mps 753 mmHg 90%
05:00 +19°C° 0 mm 3 mps 753 mmHg 86%
06:00 +20°C° 0 mm 4 mps 753 mmHg 83%
07:00 +22°C° 0 mm 5 mps 753 mmHg 79%
08:00 +23°C° 0 mm 5 mps 754 mmHg 77%
09:00 +25°C° 0 mm 5 mps 754 mmHg 74%
10:00 +26°C° 0 mm 5 mps 754 mmHg 71%
11:00 +27°C° 0 mm 4 mps 754 mmHg 69%
12:00 +27°C° 0 mm 4 mps 753 mmHg 67%
13:00 +28°C° 0 mm 4 mps 753 mmHg 66%
14:00 +28°C° 0 mm 4 mps 753 mmHg 65%
15:00 +28°C° 0 mm 4 mps 753 mmHg 64%
16:00 +28°C° 0 mm 4 mps 753 mmHg 64%
17:00 +27°C° 0 mm 3 mps 753 mmHg 69%
18:00 +26°C° 0 mm 3 mps 753 mmHg 74%
19:00 +24°C° 0 mm 3 mps 753 mmHg 79%
20:00 +22°C° 0 mm 3 mps 753 mmHg 81%
21:00 +21°C° 0 mm 3 mps 753 mmHg 83%
22:00 +21°C° 0 mm 3 mps 753 mmHg 84%
23:00 +20°C° 0 mm 3 mps 753 mmHg 85%

Day after tomorrow, 5 July, Sunday

Time Temperature Precipitation Wind Pressure Humidity
00:00 +19°C° 0 mm 3 mps 753 mmHg 85%
01:00 +19°C° 0 mm 3 mps 753 mmHg 86%
02:00 +18°C° 0 mm 2 mps 753 mmHg 86%
03:00 +18°C° 0 mm 2 mps 753 mmHg 87%
04:00 +18°C° 0 mm 2 mps 753 mmHg 87%
05:00 +19°C° 0 mm 2 mps 753 mmHg 83%
06:00 +20°C° 0 mm 2 mps 754 mmHg 80%
07:00 +23°C° 0 mm 2 mps 754 mmHg 76%
08:00 +24°C° 0 mm 3 mps 754 mmHg 70%
09:00 +26°C° 0 mm 3 mps 754 mmHg 65%
10:00 +27°C° 0 mm 3 mps 754 mmHg 59%
11:00 +28°C° 0 mm 3 mps 754 mmHg 57%
12:00 +28°C° 0 mm 3 mps 753 mmHg 54%
13:00 +29°C° 0 mm 3 mps 753 mmHg 52%
14:00 +29°C° 0 mm 3 mps 753 mmHg 52%
15:00 +29°C° 0 mm 3 mps 753 mmHg 53%
16:00 +29°C° 0 mm 3 mps 752 mmHg 53%
17:00 +28°C° 0 mm 2 mps 752 mmHg 58%
18:00 +26°C° 0 mm 1 mps 752 mmHg 62%
19:00 +25°C° 0 mm 1 mps 752 mmHg 67%
20:00 +24°C° 0 mm 1 mps 752 mmHg 68%
21:00 +23°C° 0 mm 1 mps 753 mmHg 70%
22:00 +22°C° 0 mm 1 mps 753 mmHg 71%
23:00 +22°C° 0 mm 1 mps 752 mmHg 74%

6 July, Monday

Time Temperature Precipitation Wind Pressure Humidity
00:00 +21°C° 0 mm 1 mps 752 mmHg 76%
01:00 +18°C° 0 mm 0 mps 752 mmHg 79%
02:00 +18°C° 0 mm 0 mps 752 mmHg 81%
03:00 +18°C° 0 mm 0 mps 752 mmHg 83%
04:00 +17°C° 0 mm 0 mps 751 mmHg 84%
05:00 +19°C° 0 mm 0 mps 751 mmHg 80%
06:00 +21°C° 0 mm 0 mps 751 mmHg 76%
07:00 +22°C° 0 mm 0 mps 751 mmHg 72%
08:00 +24°C° 0 mm 0 mps 751 mmHg 67%
09:00 +27°C° 0 mm 1 mps 751 mmHg 63%
10:00 +29°C° 0 mm 1 mps 751 mmHg 58%
11:00 +30°C° 0 mm 1 mps 750 mmHg 55%
12:00 +30°C° 0 mm 1 mps 750 mmHg 51%
13:00 +29°C° 0 mm 0 mps 750 mmHg 48%
14:00 +31°C° 0 mm 1 mps 749 mmHg 47%
15:00 +31°C° 0 mm 1 mps 749 mmHg 46%
16:00 +31°C° 0 mm 1 mps 749 mmHg 45%
17:00 +30°C° 0 mm 1 mps 749 mmHg 51%
18:00 +28°C° 0 mm 1 mps 749 mmHg 58%
19:00 +27°C° 0 mm 1 mps 749 mmHg 64%
20:00 +26°C° 0 mm 1 mps 749 mmHg 68%
21:00 +25°C° 0 mm 1 mps 749 mmHg 71%
22:00 +24°C° 0 mm 1 mps 749 mmHg 75%
23:00 +23°C° 0.1 mm 2 mps 749 mmHg 78%

7 July, Tuesday

Time Temperature Precipitation Wind Pressure Humidity
00:00 +22°C° 0.1 mm 3 mps 749 mmHg 81%
01:00 +21°C° 0.1 mm 4 mps 749 mmHg 84%
02:00 +21°C° 0.1 mm 5 mps 750 mmHg 83%
03:00 +20°C° 0.1 mm 6 mps 750 mmHg 82%
04:00 +18°C° 0.1 mm 7 mps 750 mmHg 81%
05:00 +18°C° 0 mm 7 mps 751 mmHg 76%
06:00 +18°C° 0 mm 8 mps 751 mmHg 72%
07:00 +18°C° 0 mm 8 mps 751 mmHg 67%
08:00 +18°C° 0 mm 8 mps 752 mmHg 66%
09:00 +20°C° 0 mm 7 mps 752 mmHg 65%
10:00 +20°C° 0 mm 7 mps 752 mmHg 64%
11:00 +21°C° 0 mm 7 mps 752 mmHg 62%
12:00 +22°C° 0 mm 6 mps 752 mmHg 59%
13:00 +23°C° 0 mm 6 mps 752 mmHg 56%
14:00 +23°C° 0 mm 6 mps 752 mmHg 57%
15:00 +23°C° 0 mm 6 mps 752 mmHg 57%
16:00 +23°C° 0 mm 5 mps 752 mmHg 58%
17:00 +22°C° 0 mm 4 mps 752 mmHg 62%
18:00 +21°C° 0 mm 4 mps 753 mmHg 66%
19:00 +19°C° 0 mm 3 mps 753 mmHg 70%
20:00 +18°C° 0 mm 3 mps 754 mmHg 70%
21:00 +17°C° 0 mm 3 mps 754 mmHg 70%
22:00 +17°C° 0 mm 3 mps 754 mmHg 70%
23:00 +16°C° 0 mm 3 mps 755 mmHg 71%

8 July, Wednesday

Time Temperature Precipitation Wind Pressure Humidity
00:00 +14°C° 0 mm 3 mps 755 mmHg 72%
01:00 +14°C° 0 mm 3 mps 755 mmHg 73%
02:00 +13°C° 0 mm 3 mps 755 mmHg 75%
03:00 +13°C° 0 mm 3 mps 755 mmHg 77%
04:00 +13°C° 0 mm 3 mps 755 mmHg 79%
05:00 +14°C° 0 mm 3 mps 756 mmHg 76%
06:00 +17°C° 0 mm 3 mps 756 mmHg 73%
07:00 +18°C° 0 mm 3 mps 756 mmHg 69%
08:00 +20°C° 0 mm 3 mps 756 mmHg 64%
09:00 +21°C° 0 mm 3 mps 756 mmHg 59%
10:00 +22°C° 0 mm 3 mps 757 mmHg 53%
11:00 +24°C° 0 mm 2 mps 756 mmHg 53%
12:00 +24°C° 0 mm 2 mps 756 mmHg 52%
13:00 +24°C° 0 mm 2 mps 756 mmHg 51%
14:00 +24°C° 0 mm 2 mps 756 mmHg 51%
15:00 +25°C° 0 mm 1 mps 756 mmHg 50%
16:00 +25°C° 0 mm 1 mps 756 mmHg 50%
17:00 +23°C° 0 mm 1 mps 756 mmHg 55%
18:00 +22°C° 0 mm 1 mps 756 mmHg 60%
19:00 +21°C° 0 mm 1 mps 756 mmHg 65%
20:00 +20°C° 0 mm 1 mps 757 mmHg 67%
21:00 +19°C° 0 mm 1 mps 757 mmHg 68%
22:00 +18°C° 0 mm 1 mps 757 mmHg 70%
23:00 +18°C° 0 mm 1 mps 757 mmHg 72%
Show more